Overview Statistics Trail Chart Weather Telemetry Raw packets
 

This is the latest recevied weather packets stored in our database for station/object KM8V-8. If no packets are shown the sender has not sent any weather packets the latest 10 day(s).

<< 18 19 20 21 22 23 24 >>
Time Temp. Humidity Pressure Rain* Wind** Luminosity Snow
1777682421 6.11° C 82% 1014.9 hPa 0 mm - 1 W/m² -
1777682122 6.11° C 81% 1014.8 hPa 0 mm - 3 W/m² -
1777681822 6.11° C 81% 1014.7 hPa 0 mm - 4 W/m² -
1777681522 6.11° C 80% 1014.6 hPa 0 mm - 7 W/m² -
1777681222 6.11° C 79% 1014.6 hPa 0 mm - 11 W/m² -
1777680922 6.11° C 79% 1014.5 hPa 0 mm - 14 W/m² -
1777680622 6.67° C 78% 1014.4 hPa 0 mm - 17 W/m² -
1777680322 6.67° C 77% 1014.4 hPa 0 mm - 22 W/m² -
1777680022 6.67° C 77% 1014.3 hPa 0 mm - 25 W/m² -
1777679722 6.67° C 76% 1014.3 hPa 0 mm - 28 W/m² -
1777679422 6.67° C 75% 1014.3 hPa 0 mm - 31 W/m² -
1777679134 6.67° C 75% 1014.3 hPa 0 mm - 35 W/m² -
1777678823 7.22° C 75% 1014.3 hPa 0 mm - 37 W/m² -
1777678523 7.22° C 73% 1014.3 hPa 0 mm - 43 W/m² -
1777678223 7.78° C 72% 1014.2 hPa 0 mm - 55 W/m² -
1777677923 7.78° C 71% 1014.2 hPa 0 mm - 90 W/m² -
1777677623 7.78° C 72% 1014.1 hPa 0 mm - 137 W/m² -
1777677323 7.22° C 73% 1014.1 hPa 0 mm - 150 W/m² -
1777677023 7.22° C 75% 1014.1 hPa 0 mm - 155 W/m² -
1777676723 7.22° C 76% 1014.1 hPa 0 mm - 106 W/m² -
1777676423 6.67° C 77% 1014.1 hPa 0 mm - 104 W/m² -
1777676124 6.67° C 77% 1014.1 hPa 0 mm - 100 W/m² -
1777675824 6.67° C 77% 1014 hPa 0 mm - 112 W/m² -
1777675524 6.67° C 77% 1014.1 hPa 0 mm - 115 W/m² -
1777675224 6.67° C 77% 1014.1 hPa 0 mm - 117 W/m² -

* Rain latest hour (hover to see other rain measurements)
** Current wind speed in m/s (hover to see current wind gust speed)